Погода в Приветном

Россия / Республика Крым     44°49′19″N   34°40′39″E
темп.,
°C
ветер,
м/с
пор.,
м/с
влажн.,
%
обл.,
%
осадки,
мм/ч
давл.,
гПа
погр.,
м
7 августа, вс
вс700:00+25с68680 0.0 1008190
03:00+25ссв57640 0.0 1008137
06:00+25ссв610590 0.0 1009311
09:00+28св913470 0.0 1009750
12:00+29всв1115460 0.0 10101092
15:00+29в913460 0.0 10091135
18:00+29св913440 0.0 1010826
21:00+25с79560 0.0 1010142
8 августа, пн
пн800:00+25ссз78560 0.0 1011116
03:00+25с88530 0.0 1011111
06:00+25с79560 0.0 1011142
09:00+29св68460 0.0 1012394
12:00+29в812470 0.0 10131097
15:00+30в69420 0.0 10121116
18:00+30ссв68390 0.0 1012542
21:00+26с78460 0.0 101286
9 августа, вт
вт900:00+26ссв710480 0.0 1012123
03:00+26ссв68500 0.0 1012119
06:00+25ссв710480 0.0 1012201
09:00+29св1116420 0.0 1012998
12:00+29всв1317410 0.0 10121170
15:00+30в913410 0.0 1011995
18:00+30ссв68446 0.0 1010382
21:00+26с794899 0.0 100999
10 августа, ср
ср1000:00+26с785621 0.0 100995
03:00+27ссв794549 0.0 1008121
06:00+26ссв811515 0.0 1008194
09:00+29св11164214 0.0 1008865
12:00+29в1014460 0.0 10081020
15:00+30всв7104295 0.0 10071017
18:00+30ссв81139100 0.0 1006351
21:00+28с9144596 0.0 1006250
11 августа, чт
чт1100:00+27с71051100 0.1 1005115
03:00+27ссз675983 0.1 100592
06:00+26ссв57672 0.0 1006177
09:00+27всв9116043 0.0 1007721
12:00+27в7961100 0.3 1008659
15:00+27в795993 0.4 1008795
18:00+27в12633 0.0 1008317
21:00+26с336129 0.0 100825